Погода в Лангепасе

Россия / Ханты-Мансийский автономный округ - Югра     61°15′13″N   75°10′50″E
темп.,
°C
ветер,
м/с
пор.,
м/с
влажн.,
%
обл.,
%
осадки,
мм/ч
давл.,
гПа
погр.,
м
8 марта, пн
пн823:00−15юв129781 0.1 100920
02:00−15вюв349894 0.0 100769
05:00−13в479697 0.1 1003221
08:00−12ссв4795100 1.0 997263
11:00−10с5794100 2.0 995476
14:00−10сз71090100 0.4 997626
17:00−13зсз61191100 0.5 1000471
20:00−19з5109776 0.0 1003178
9 марта, вт
вт923:00−23з469751 0.0 100697
02:00−24з349915 0.0 100747
05:00−24зюз339952 0.0 100833
08:00−22юз1296100 0.0 100981
11:00−17юв2392100 0.0 1009235
14:00−14вюв3593100 0.1 1008300
17:00−13в4695100 0.3 1006170
20:00−11в489599 0.4 1005202
10 марта, ср
ср1023:00−10юв369699 1.2 1003154
02:00−10юз1296100 0.5 100336
05:00−18сз579699 0.6 1005151
08:00−23сз469779 0.0 1007154
11:00−21сз349469 0.0 1010239
14:00−19сз349264 0.0 1011290
17:00−21ссз229771 0.0 101120
20:00−25ссв239852 0.0 101020
11 марта, чт
чт1123:00−25ссв339776 0.0 101054
02:00−25ссв3596100 0.0 1008128
05:00−25ссв3695100 0.0 1007175
08:00−25ссв3695100 0.0 1007219
11:00−23с3596100 0.1 1008236
14:00−21с4695100 0.1 1009275
17:00−22ссв4794100 0.1 1009289
20:00−23св3696100 0.1 1010199
12 марта, пт
пт1223:00−23св3597100 0.1 1010188
02:00−24ссв3598100 0.1 1009160
05:00−25ссв3597100 0.2 1009111
08:00−24ссв3497100 0.0 1009159
11:00−21ссз3496100 0.1 1010234
14:00−20ссз349389 0.0 1012294
17:00−22сз349579 0.0 101366
20:00−27сз33940 0.0 101419